Location: Unspecified
(52.4292°N, 19.3359°E)
Time: 00:16:28
(UTC+02:00)

SR - Pass Details

Date: 02 June 2024
Orbit: 580 x 858 km, 66.7° (Epoch: 12 June)

Event Time Altitude Azimuth Distance (km) Brightness Sun altitude
Rises 00:07:06 0° 320° (NW) 2,879 ? -15.0°
Reaches altitude 10° 00:09:24 10° 320° (NW) 1,945 ? -15.0°
Maximum altitude 00:13:44 83° 232° (SW) 594 ? -15.1°
Enters shadow 00:16:15 24° 146° (SSE) 1,224 ? -15.2°
Drops below altitude 10° 00:17:58 10° 145° (SE) 1,894 - -15.2°
Sets 00:20:10 0° 145° (SE) 2,795 - -15.2°
